White Plains, CT

11:07 AM EST on November 17, 2019 (GMT -0500)
Westchester County

Weather History for KHPN - September, 2019

Change the Weather History Date:

Sunday, September 22, 2019

  Actual Average Record
Temperature  
Mean Temperature 70 °F -  
Max Temperature 84 °F 69 °F 89 °F (1980)
Min Temperature 55 °F 52 °F 39 °F (1997)
Cooling Degree Days 4    
Growing Degree Days 20 (Base 50)    
Moisture  
Dew Point 60 °F    
Average Humidity 72    
Maximum Humidity 97    
Minimum Humidity 45    
Precipitation  
Precipitation 0.00 in - - ()
Sea Level Pressure  
Sea Level Pressure 30.10 in    
Wind  
Wind Speed 4 mph ()    
Max Wind Speed 13 mph    
Max Gust Speed 20 mph    
Visibility 9.2 miles    
Events      
Averages and records for this station are not official NWS values.
T = Trace of Precipitation, MM = Missing Value Source: Averaged Metar Reports

Daily Weather History Graph

Daily Weather History Graph

Search for Another Location

Airport or City:

Astronomy

Sep. 22, 2019 Rise Set
Actual Time 6:42 AM EDT 6:52 PM EDT
Civil Twilight 6:14 AM EDT 7:19 PM EDT
Nautical Twilight 5:42 AM EDT 7:52 PM EDT
Astronomical Twilight 5:09 AM EDT 8:24 PM EDT
Moon No Moon Rise 2:48 PM EDT (9/22)
Length of Visible Light 13h 05m
Length of Day
12h 10m
Last Quarter, 44% of the Moon is Illuminated
Sep 22
Last Quarter
Sep 28
New
Oct 5
First Quarter
Oct 13
Full
Oct 21
Last Quarter

Hourly Weather History & Observations

Time (EDT) Temp. Heat Index Dew Point Humidity Pressure Visibility Wind Dir Wind Speed Gust Speed Precip Events Conditions
12:56 AM 60.1 °F - 57.0 °F 90% 30.17 in 10.0 mi NW 5.8 mph - N/A   Clear
1:56 AM 60.1 °F - 57.9 °F 93% 30.16 in 10.0 mi WNW 3.5 mph - N/A   Clear
2:56 AM 59.0 °F - 57.9 °F 96% 30.16 in 9.0 mi NW 3.5 mph - N/A   Clear
3:56 AM 57.9 °F - 57.0 °F 97% 30.15 in 10.0 mi WNW 3.5 mph - N/A   Clear
4:56 AM 59.0 °F - 57.0 °F 93% 30.16 in 7.0 mi Calm Calm - N/A   Clear
5:56 AM 55.9 °F - 55.0 °F 97% 30.16 in 6.0 mi WNW 3.5 mph - N/A   Clear
6:56 AM 57.0 °F - 55.9 °F 96% 30.16 in 6.0 mi WNW 4.6 mph - N/A   Clear
7:56 AM 62.1 °F - 60.1 °F 93% 30.17 in 6.0 mi NW 4.6 mph - N/A   Clear
8:56 AM 69.1 °F - 59.0 °F 70% 30.17 in 8.0 mi WSW 3.5 mph - N/A   Clear
9:56 AM 72.0 °F - 59.0 °F 64% 30.16 in 8.0 mi West 3.5 mph - N/A   Clear
10:56 AM 77.0 °F - 60.1 °F 56% 30.14 in 10.0 mi SSE 4.6 mph - N/A   Clear
11:56 AM 81.0 °F 81.1 °F 57.9 °F 45% 30.12 in 10.0 mi Variable 4.6 mph - N/A   Clear
12:56 PM 82.0 °F 82.7 °F 61.0 °F 49% 30.11 in 10.0 mi South 9.2 mph - N/A   Partly Cloudy
1:56 PM 84.0 °F 84.4 °F 61.0 °F 46% 30.09 in 10.0 mi South 11.5 mph 19.6 mph N/A   Clear
2:56 PM 82.9 °F 83.3 °F 61.0 °F 47% 30.07 in 10.0 mi South 11.5 mph - N/A   Clear
3:56 PM 82.0 °F 82.4 °F 60.1 °F 47% 30.05 in 10.0 mi South 12.7 mph - N/A   Clear
4:56 PM 81.0 °F 81.6 °F 60.1 °F 49% 30.04 in 10.0 mi SSE 9.2 mph - N/A   Clear
5:56 PM 78.1 °F - 61.0 °F 56% 30.03 in 10.0 mi South 6.9 mph - N/A   Clear
6:56 PM 75.0 °F - 61.0 °F 62% 30.03 in 10.0 mi SSE 5.8 mph - N/A   Clear
7:56 PM 71.1 °F - 62.1 °F 73% 30.03 in 10.0 mi SSE 5.8 mph - N/A   Clear
8:56 PM 71.1 °F - 64.0 °F 78% 30.02 in 10.0 mi South 5.8 mph - N/A   Clear
9:56 PM 70.0 °F - 64.9 °F 84% 30.01 in 10.0 mi South 3.5 mph - N/A   Clear
10:56 PM 71.1 °F - 66.0 °F 84% 30.00 in 10.0 mi Calm Calm - N/A   Clear
11:56 PM 73.0 °F - 64.0 °F 73% 29.99 in 10.0 mi Variable 3.5 mph - N/A   Clear